Stations météo

Publicité
Dalwhinnie, Grande-Bretagne (99005): Température de l'air & dewpoint: 11.11.2018 17:00:00 - 17.11.2018 17:00:00 (GMT)Dalwhinnie, Grande-Bretagne (99005): Quantités de précipitations: 11.11.2018 17:00:00 - 17.11.2018 17:00:00 (GMT)
Date & Time tt [°C] td [°C] rr [mm]
17.11.2018 17:00:00 6,1 2,9 0,0
17.11.2018 16:00:00 6,5 2,9 0,0
17.11.2018 15:00:00 6,6 3,4 0,0
17.11.2018 14:00:00 7,3 3,6 0,0
17.11.2018 13:00:00 6,3 3,3 0,0
17.11.2018 12:00:00 6,2 2,7 0,0
17.11.2018 11:00:00 6,1 2,3 0,0
17.11.2018 10:00:00 6,0 2,2 0,0
17.11.2018 09:00:00 5,7 2,6 0,0
17.11.2018 08:00:00 5,8 2,1 0,0
17.11.2018 07:00:00 6,0 2,0 0,0
17.11.2018 06:00:00 6,5 2,6 0,0
17.11.2018 05:00:00 7,1 3,1 0,0
17.11.2018 04:00:00 8,1 5,0 0,0
17.11.2018 03:00:00 8,8 6,2 0,0
17.11.2018 02:00:00 8,0 6,1 0,0
17.11.2018 01:00:00 9,0 7,1 0,0
17.11.2018 00:00:00 8,8 7,1 0,0
16.11.2018 23:00:00 9,2 7,0 0,0
16.11.2018 22:00:00 10,0 7,3 0,0
16.11.2018 21:00:00 10,1 7,7 0,0
16.11.2018 20:00:00 10,0 7,4 0,0
16.11.2018 19:00:00 10,0 7,8 0,0
16.11.2018 18:00:00 10,5 7,5 0,0
16.11.2018 17:00:00 10,5 7,3 0,0
16.11.2018 16:00:00 10,3 7,4 0,2
16.11.2018 15:00:00 10,4 7,5 0,0
16.11.2018 14:00:00 10,4 7,3 0,0
16.11.2018 13:00:00 9,7 7,3 0,0
16.11.2018 12:00:00 8,9 6,8 0,0
16.11.2018 11:00:00 8,3 5,9 0,0
16.11.2018 10:00:00 7,3 5,0 0,0
16.11.2018 09:00:00 6,4 4,3 0,0
16.11.2018 08:00:00 6,2 3,4 0,0
16.11.2018 07:00:00 4,0 2,5 0,0
16.11.2018 06:00:00 3,9 2,3 0,0
16.11.2018 05:00:00 3,5 1,3 0,0
16.11.2018 04:00:00 5,3 2,3 0,0
16.11.2018 03:00:00 6,7 3,6 0,0
16.11.2018 02:00:00 6,7 4,3 0,0
16.11.2018 01:00:00 7,3 4,6 0,0
16.11.2018 00:00:00 7,4 4,3 0,0
15.11.2018 23:00:00 7,3 5,1 0,0
15.11.2018 22:00:00 7,8 5,7 0,0
15.11.2018 21:00:00 7,6 6,0 0,0
15.11.2018 20:00:00 7,6 5,9 0,2
15.11.2018 19:00:00 7,8 6,3 1,2
15.11.2018 18:00:00 10,3 8,3 0,2
15.11.2018 17:00:00 10,8 7,2 0,0
15.11.2018 16:00:00 10,0 6,6 0,0
15.11.2018 15:00:00 9,5 5,5 0,0
15.11.2018 14:00:00 10,0 4,6 0,0
15.11.2018 13:00:00 11,0 6,8 0,0
15.11.2018 12:00:00 10,2 8,3 0,0
15.11.2018 11:00:00 10,2 8,3 0,0
15.11.2018 10:00:00 10,4 8,1 0,0
15.11.2018 09:00:00 10,5 8,1 0,0
15.11.2018 08:00:00 10,9 8,3 0,0
15.11.2018 07:00:00 10,9 8,8 0,2
15.11.2018 06:00:00 10,8 9,1 0,0
15.11.2018 05:00:00 10,7 9,0 0,0
15.11.2018 04:00:00 10,8 9,2 0,0
15.11.2018 03:00:00 10,9 9,1 0,0
15.11.2018 02:00:00 11,3 9,1 0,0
15.11.2018 01:00:00 11,7 9,0 0,0
15.11.2018 00:00:00 11,1 9,2 0,0
14.11.2018 23:00:00 11,7 8,8 0,0
14.11.2018 22:00:00 11,3 9,3 0,0
14.11.2018 21:00:00 11,7 9,5 0,0
14.11.2018 20:00:00 11,4 9,7 0,0
14.11.2018 19:00:00 11,4 9,8 0,0
14.11.2018 18:00:00 11,6 9,9 0,0
14.11.2018 17:00:00 11,6 10,1 0,0
14.11.2018 16:00:00 11,7 10,5 0,2
14.11.2018 15:00:00 11,7 10,6 0,0
14.11.2018 14:00:00 11,6 10,5 0,0
14.11.2018 13:00:00 12,0 10,7 0,2
14.11.2018 12:00:00 11,2 10,3 0,8
14.11.2018 11:00:00 11,0 9,7 0,2
14.11.2018 10:00:00 10,6 9,0 0,0
14.11.2018 09:00:00 10,1 8,5 0,0
14.11.2018 08:00:00 10,1 8,2 0,0
14.11.2018 07:00:00 9,7 7,8 0,0
14.11.2018 06:00:00 9,7 7,7 0,0
14.11.2018 05:00:00 9,3 7,6 0,2
14.11.2018 04:00:00 9,2 7,5 0,2
14.11.2018 03:00:00 9,0 7,4 0,2
14.11.2018 02:00:00 8,9 7,1 0,0
14.11.2018 01:00:00 8,8 6,7 0,2
14.11.2018 00:00:00 8,2 6,7 0,0
13.11.2018 23:00:00 8,1 6,2 0,0
13.11.2018 22:00:00 7,6 5,3 0,0
13.11.2018 21:00:00 7,6 4,2 0,0
13.11.2018 20:00:00 7,0 4,0 0,0
13.11.2018 19:00:00 6,3 4,5 0,0
13.11.2018 18:00:00 6,8 3,2 0,0
13.11.2018 17:00:00 7,1 3,8 0,0
13.11.2018 16:00:00 7,0 3,9 0,0
13.11.2018 15:00:00 7,5 2,8 0,0
13.11.2018 14:00:00 8,2 3,2 0,0
13.11.2018 13:00:00 8,2 4,4 0,0
13.11.2018 12:00:00 7,5 5,0 0,0
13.11.2018 11:00:00 8,0 5,1 0,0
13.11.2018 10:00:00 7,5 5,1 0,0
13.11.2018 09:00:00 6,4 5,2 0,0
13.11.2018 08:00:00 6,2 5,4 0,0
13.11.2018 07:00:00 5,1 4,6 0,0
13.11.2018 06:00:00 5,1 4,1 0,0
13.11.2018 05:00:00 5,4 4,5 0,0
13.11.2018 04:00:00 5,7 3,9 0,0
13.11.2018 03:00:00 5,2 3,6 0,0
13.11.2018 02:00:00 5,0 3,0 0,0
13.11.2018 01:00:00 5,7 3,3 0,0
13.11.2018 00:00:00 3,9 1,9 0,0
12.11.2018 23:00:00 5,3 2,8 0,0
12.11.2018 22:00:00 6,2 4,5 0,0
12.11.2018 21:00:00 6,0 4,6 2,0
12.11.2018 20:00:00 6,6 4,9 0,2
12.11.2018 19:00:00 6,4 5,4 0,4
12.11.2018 18:00:00 6,4 5,3 1,4
12.11.2018 17:00:00 6,9 5,4 1,4
12.11.2018 16:00:00 7,0 5,6 1,0
12.11.2018 15:00:00 7,1 5,3 0,4
12.11.2018 14:00:00 7,7 5,9 0,8
12.11.2018 13:00:00 6,8 5,7 1,2
12.11.2018 12:00:00 7,4 5,9 1,4
12.11.2018 11:00:00 7,0 5,4 1,4
12.11.2018 10:00:00 7,5 5,5 0,6
12.11.2018 09:00:00 7,0 5,4 1,0
12.11.2018 08:00:00 6,7 5,2 0,4
12.11.2018 07:00:00 6,7 4,9 0,2
12.11.2018 06:00:00 7,1 4,5 0,0
12.11.2018 05:00:00 7,1 4,6 0,0
12.11.2018 04:00:00 6,5 4,7 0,0
12.11.2018 03:00:00 6,5 4,6 0,4
12.11.2018 02:00:00 5,8 4,5 0,4
12.11.2018 01:00:00 5,2 3,8 0,0
12.11.2018 00:00:00 5,2 3,3 0,0
11.11.2018 23:00:00 5,2 3,5 0,0
11.11.2018 22:00:00 5,0 3,0 0,0
11.11.2018 21:00:00 4,7 2,4 0,0
11.11.2018 20:00:00 4,7 2,6 0,0
11.11.2018 19:00:00 3,3 1,9 0,0
11.11.2018 18:00:00 4,4 2,8 0,0
11.11.2018 17:00:00 4,6 3,0 0,0

tt = Température de l'air
td = dewpoint
rr = Quantités de précipitations

stations d'obs. à proximité